Weather History for KEAU - October, 2010

Change the Weather History Date:

Sunday, October 24, 2010

  Actual Average Record
Temperature  
Mean Temperature 58 °F 44 °F  
Max Temperature 65 °F 54 °F 80 °F (1989)
Min Temperature 51 °F 34 °F 14 °F (1960)
Degree Days  
Heating Degree Days 7 21  
Month to date heating degree days 304 395  
Since 1 July heating degree days 531 628  
Cooling Degree Days 0 0  
Month to date cooling degree days 1 0  
Year to date cooling degree days 685 575  
Growing Degree Days 8 (Base 50)    
Moisture  
Dew Point 54 °F    
Average Humidity 89    
Maximum Humidity 100    
Minimum Humidity 78    
Precipitation  
Precipitation 0.20 in 0.07 in 1.65 in (1906)
Month to date precipitation 0.25 1.93  
Year to date precipitation 31.96 27.73  
Snow  
Snow 0.00 in 0.00 in 1.00 in (1981)
Month to date snowfall 0.0 0.2  
Since 1 July snowfall 0.0 0.2  
Since 1 September snowfall 0.0 0.2  
Snow Depth 0.00 in    
Sea Level Pressure  
Sea Level Pressure 29.60 in    
Wind  
Wind Speed 5 mph (ESE)    
Max Wind Speed 13 mph    
Max Gust Speed 16 mph    
Visibility 7 miles    
Events Rain    
T = Trace of Precipitation, MM = Missing Value Source: NWS Daily Summary

Daily Weather History Graph

Daily Weather History Graph

Search for Another Location

Airport or City:

Trip Planner

Search our weather history database for the weather conditions in past years. The results will help you decide how hot, cold, wet, or windy it might be!

Date:

Astronomy

Oct. 24, 2010 Rise Set
Actual Time 7:33 AM CDT 6:06 PM CDT
Civil Twilight 7:03 AM CDT 6:36 PM CDT
Nautical Twilight 6:29 AM CDT 7:10 PM CDT
Astronomical Twilight 5:55 AM CDT 7:44 PM CDT
Moon 6:40 PM CDT 9:23 AM CDT
Length of Visible Light 11h 32m
Length of Day
10h 32m
Full, 97% of the Moon is Illuminated
Oct 24
Full
Oct 30
Last Quarter
Nov 5
New
Nov 13
First Quarter
Nov 21
Full

Hourly Weather History & Observations

Time (CDT) Temp. Dew Point Humidity Pressure Visibility Wind Dir Wind Speed Gust Speed Precip Events Conditions
12:14 AM 51.8 °F 50.0 °F 94% 29.78 in 2.0 mi ENE 6.9 mph - N/A   Overcast
12:23 AM 51.8 °F 50.0 °F 94% 29.78 in 1.8 mi ENE 6.9 mph - N/A   Overcast
12:56 AM 51.8 °F 50.0 °F 94% 29.76 in 2.0 mi ENE 6.9 mph - N/A   Overcast
1:09 AM 51.8 °F 50.0 °F 94% 29.75 in 3.0 mi NE 9.2 mph - N/A   Overcast
1:56 AM 51.1 °F 50.0 °F 96% 29.77 in 4.0 mi ENE 5.8 mph - N/A   Overcast
2:56 AM 51.1 °F 50.0 °F 96% 29.75 in 4.0 mi NE 6.9 mph - 0.00 in Rain Light Rain
3:38 AM 51.8 °F 50.0 °F 94% 29.71 in 4.0 mi NE 9.2 mph - 0.03 in Rain Light Rain
3:56 AM 51.1 °F 50.0 °F 96% 29.73 in 4.0 mi North 3.5 mph - 0.03 in   Overcast
4:56 AM 51.1 °F 50.0 °F 96% 29.72 in 3.0 mi ENE 6.9 mph - 0.07 in Rain Heavy Rain
5:56 AM 53.1 °F 51.1 °F 93% 29.67 in 10.0 mi ENE 3.5 mph - 0.04 in   Overcast
6:56 AM 53.1 °F 51.1 °F 93% 29.67 in 10.0 mi Calm Calm - N/A   Mostly Cloudy
7:24 AM 53.6 °F 51.8 °F 94% 29.65 in 10.0 mi Calm Calm - N/A   Overcast
7:56 AM 54.0 °F 52.0 °F 93% 29.65 in 10.0 mi SE 5.8 mph - 0.00 in   Mostly Cloudy
8:56 AM 54.0 °F 52.0 °F 93% 29.65 in 4.0 mi NNE 4.6 mph - 0.00 in Rain Rain
9:26 AM 53.6 °F 53.6 °F 100% 29.64 in 4.0 mi ENE 5.8 mph - 0.02 in Rain Light Rain
9:49 AM 53.6 °F 53.6 °F 100% 29.63 in 2.0 mi ENE 5.8 mph - 0.02 in Rain Light Rain
9:56 AM 54.0 °F 53.1 °F 97% 29.64 in 2.5 mi ENE 6.9 mph - 0.02 in Rain Light Rain
10:11 AM 53.6 °F 53.6 °F 100% 29.63 in 4.0 mi NE 5.8 mph - 0.00 in Rain Light Rain
10:20 AM 53.6 °F 53.6 °F 100% 29.63 in 6.0 mi ENE 5.8 mph - 0.00 in   Overcast
10:56 AM 55.0 °F 54.0 °F 96% 29.63 in 10.0 mi ENE 4.6 mph - 0.00 in   Overcast
11:56 AM 55.9 °F 55.0 °F 97% 29.62 in 10.0 mi Calm Calm - N/A   Overcast
12:44 PM 59.0 °F 57.2 °F 94% 29.60 in 10.0 mi Calm Calm - N/A   Overcast
12:56 PM 59.0 °F 57.0 °F 93% 29.60 in 10.0 mi Calm Calm - N/A   Overcast
1:56 PM 60.1 °F 57.9 °F 93% 29.57 in 10.0 mi Calm Calm - N/A   Overcast
2:03 PM 60.8 °F 57.2 °F 88% 29.57 in 8.0 mi Calm Calm - 0.00 in Rain Light Rain
2:25 PM 62.6 °F 59.0 °F 88% 29.55 in 10.0 mi Calm Calm - 0.00 in   Overcast
2:30 PM 62.6 °F 60.8 °F 94% 29.55 in 10.0 mi Variable 3.5 mph - 0.00 in   Overcast
2:48 PM 62.6 °F 57.2 °F 82% 29.55 in 10.0 mi Variable 3.5 mph - 0.00 in   Mostly Cloudy
2:56 PM 63.0 °F 59.0 °F 87% 29.55 in 10.0 mi South 4.6 mph - 0.00 in   Mostly Cloudy
3:56 PM 64.0 °F 57.0 °F 78% 29.54 in 10.0 mi South 9.2 mph - N/A   Overcast
4:56 PM 62.1 °F 55.9 °F 80% 29.54 in 10.0 mi South 6.9 mph - N/A   Overcast
5:56 PM 61.0 °F 55.9 °F 83% 29.54 in 10.0 mi South 8.1 mph - N/A   Overcast
6:56 PM 60.1 °F 55.0 °F 83% 29.53 in 10.0 mi South 5.8 mph - N/A   Overcast
7:19 PM 60.8 °F 55.4 °F 82% 29.52 in 10.0 mi South 4.6 mph - N/A   Overcast
7:56 PM 57.9 °F 55.9 °F 93% 29.53 in 8.0 mi South 4.6 mph - 0.00 in Rain Light Rain
8:13 PM 57.2 °F 55.4 °F 94% 29.52 in 10.0 mi SSE 3.5 mph - 0.00 in   Overcast
8:56 PM 57.9 °F 55.9 °F 93% 29.52 in 10.0 mi SSE 5.8 mph - 0.00 in   Overcast
9:56 PM 57.9 °F 55.9 °F 93% 29.51 in 10.0 mi South 6.9 mph - N/A   Overcast
10:16 PM 57.2 °F 55.4 °F 94% 29.51 in 5.0 mi West 4.6 mph - 0.00 in Rain Light Rain
10:24 PM 57.2 °F 55.4 °F 94% 29.51 in 2.5 mi WSW 4.6 mph - 0.02 in Rain Heavy Rain
10:45 PM 57.2 °F 55.4 °F 94% 29.51 in 3.0 mi WSW 5.8 mph - 0.04 in Rain Light Rain
10:53 PM 57.2 °F 55.4 °F 94% 29.51 in 5.0 mi WSW 4.6 mph - 0.04 in Rain Light Rain
10:56 PM 57.0 °F 55.9 °F 96% 29.51 in 6.0 mi WSW 4.6 mph - 0.04 in Rain Light Rain
11:13 PM 57.2 °F 55.4 °F 94% 29.50 in 6.0 mi WSW 4.6 mph - 0.00 in   Overcast
11:22 PM 57.2 °F 55.4 °F 94% 29.50 in 7.0 mi West 5.8 mph - 0.00 in   Overcast
11:44 PM 55.4 °F 55.4 °F 100% 29.50 in 5.0 mi Calm Calm - 0.00 in   Overcast
11:56 PM 55.9 °F 55.9 °F 100% 29.49 in 5.0 mi Calm Calm - 0.00 in   Overcast